Orbital Elements at Epoch 2459200.5 (2020-Dec-17.0) TDB
Reference: JPL 19 (heliocentric ecliptic J2000)
Element | Value | Uncertainty (1-sigma) | Units |
e | .1085321410226084 | 4.5554e-08 | |
a | 2.642667418932584 | 1.5101e-08 | au |
q | 2.35585306594514 | 1.199e-07 | au |
i | 3.758109354589009 | 5.033e-06 | deg |
node | 356.2747256550998 | 6.2059e-05 | deg |
peri | 213.392879927418 | 6.4974e-05 | deg |
M | 208.438827578836 | 2.0546e-05 | deg |
tp | 2459861.113809310877 (2022-Oct-08.61380931) | 9.2041e-05 | TDB |
period | 1569.141802961577 4.30 | 1.3449e-05 3.682e-08 | d yr |
n | .2294247717577474 | 1.9664e-09 | deg/d |
Q | 2.929481771920027 | 1.6739e-08 | au |
|
| | Orbit Determination Parameters
Additional Information
|